WWA2482 KBOS-KORF

Flight info

Callsign WWA2482
Flight time 1h 10m
Altitude 38000
Route SSOXS7 SSOXS Q167 TBONN OUTLA1
Aircraft CRJ9/M-SDFGIRWY/S

Departure

Time 2026-05-04 23:55
Airport Boston Logan International Airport (KBOS)

Arrival

Time 2026-05-05 01:06
Airport Norfolk International Airport (KORF)
Time Latitude Longitude Altitude Speed Heading
2026-05-04 23:34 42.36708 -71.01525 25 ft 0 kts 342°
2026-05-04 23:44 42.36690 -71.01517 28 ft 4 kts 346°
2026-05-04 23:45 42.36674 -71.01516 24 ft 4 kts 51°
2026-05-04 23:45 42.36676 -71.01504 26 ft 0 kts 78°
2026-05-04 23:47 42.36676 -71.01502 26 ft 1 kts 78°
2026-05-04 23:47 42.36678 -71.01494 25 ft 1 kts 78°
2026-05-04 23:47 42.36680 -71.01480 26 ft 2 kts 78°
2026-05-04 23:48 42.36683 -71.01459 24 ft 3 kts 79°
2026-05-04 23:48 42.36687 -71.01431 24 ft 3 kts 79°
2026-05-04 23:48 42.36693 -71.01383 24 ft 7 kts 80°
2026-05-04 23:48 42.36705 -71.01293 24 ft 12 kts 74°
2026-05-04 23:49 42.36740 -71.01244 24 ft 4 kts 10°
2026-05-04 23:49 42.36786 -71.01268 24 ft 11 kts 325°
2026-05-04 23:49 42.36855 -71.01269 24 ft 12 kts 45°
2026-05-04 23:49 42.36926 -71.01177 24 ft 16 kts 41°
2026-05-04 23:50 42.37020 -71.01089 24 ft 16 kts 26°
2026-05-04 23:50 42.37124 -71.01021 24 ft 17 kts 25°
2026-05-04 23:50 42.37232 -71.00950 24 ft 17 kts 26°
2026-05-04 23:50 42.37315 -71.00901 24 ft 12 kts 20°
2026-05-04 23:51 42.37401 -71.00859 25 ft 14 kts 20°
2026-05-04 23:51 42.37485 -71.00818 25 ft 12 kts 19°
2026-05-04 23:51 42.37563 -71.00780 24 ft 11 kts 19°
2026-05-04 23:51 42.37621 -71.00752 24 ft 7 kts 19°
2026-05-04 23:52 42.37672 -71.00728 24 ft 8 kts 20°
2026-05-04 23:52 42.37731 -71.00699 24 ft 10 kts 20°
2026-05-04 23:52 42.37805 -71.00662 24 ft 12 kts 26°
2026-05-04 23:52 42.37830 -71.00572 24 ft 7 kts 107°
2026-05-04 23:53 42.37819 -71.00527 24 ft 5 kts 108°
2026-05-04 23:53 42.37807 -71.00487 24 ft 1 kts 137°
2026-05-04 23:53 42.37787 -71.00480 24 ft 6 kts 187°
2026-05-04 23:53 42.37758 -71.00491 24 ft 0 kts 199°
2026-05-04 23:54 42.37617 -71.00558 24 ft 54 kts 199°
2026-05-04 23:55 42.37041 -71.00837 24 ft 119 kts 200°
2026-05-04 23:55 42.36140 -71.01274 240 ft 146 kts 200°
2026-05-04 23:55 42.34335 -71.01171 1555 ft 163 kts 134°
2026-05-04 23:56 42.34115 -71.00160 1963 ft 175 kts 100°
2026-05-04 23:56 42.33926 -70.98595 2445 ft 170 kts 130°
2026-05-04 23:56 42.33179 -70.97320 2798 ft 182 kts 134°
2026-05-04 23:56 42.32400 -70.95838 3235 ft 201 kts 133°
2026-05-04 23:57 42.31578 -70.94221 3754 ft 220 kts 122°
2026-05-04 23:57 42.31306 -70.92075 4256 ft 245 kts 86°
2026-05-04 23:57 42.31643 -70.89750 4829 ft 262 kts 71°
2026-05-04 23:57 42.32220 -70.87330 5382 ft 278 kts 71°
2026-05-04 23:58 42.32768 -70.84751 5999 ft 293 kts 75°
2026-05-04 23:58 42.33211 -70.82022 6713 ft 299 kts 77°
2026-05-04 23:58 42.33306 -70.79260 7539 ft 303 kts 102°
2026-05-04 23:58 42.32538 -70.76614 8350 ft 304 kts 118°
2026-05-04 23:59 42.31545 -70.74074 9171 ft 307 kts 119°
2026-05-04 23:59 42.30533 -70.71510 9882 ft 316 kts 118°
2026-05-04 23:59 42.29350 -70.68855 9994 ft 342 kts 133°
2026-05-04 23:59 42.27404 -70.66914 10203 ft 357 kts 160°
2026-05-05 00:00 42.24989 -70.65914 10575 ft 370 kts 168°
2026-05-05 00:00 42.23318 -70.65331 10846 ft 379 kts 169°
2026-05-05 00:00 42.19883 -70.64058 11740 ft 386 kts 167°
2026-05-05 00:00 42.17319 -70.62963 12585 ft 387 kts 165°
2026-05-05 00:01 42.14743 -70.61944 13350 ft 384 kts 175°
2026-05-05 00:01 42.12110 -70.62087 14005 ft 379 kts 194°
2026-05-05 00:01 42.09558 -70.62983 14577 ft 380 kts 201°
2026-05-05 00:01 42.07082 -70.64149 15128 ft 383 kts 204°
2026-05-05 00:02 42.04563 -70.65386 15686 ft 388 kts 204°
2026-05-05 00:02 42.02007 -70.66621 16230 ft 392 kts 203°
2026-05-05 00:02 41.99399 -70.67791 16776 ft 397 kts 202°
2026-05-05 00:02 41.96752 -70.68949 17233 ft 403 kts 202°
2026-05-05 00:03 41.94078 -70.70122 17753 ft 406 kts 202°
2026-05-05 00:03 41.91380 -70.71307 18250 ft 410 kts 202°
2026-05-05 00:03 41.88656 -70.72505 18684 ft 413 kts 202°
2026-05-05 00:03 41.85912 -70.73712 19110 ft 417 kts 202°
2026-05-05 00:04 41.83176 -70.75011 19515 ft 417 kts 207°
2026-05-05 00:04 41.80577 -70.76730 19921 ft 417 kts 213°
2026-05-05 00:04 41.78066 -70.78696 20265 ft 420 kts 215°
2026-05-05 00:04 41.75556 -70.80719 20682 ft 423 kts 215°
2026-05-05 00:05 41.73006 -70.82718 21068 ft 426 kts 214°
2026-05-05 00:05 41.70407 -70.84664 21445 ft 429 kts 213°
2026-05-05 00:05 41.67791 -70.86625 21824 ft 432 kts 213°
2026-05-05 00:05 41.65184 -70.88576 22190 ft 434 kts 214°
2026-05-05 00:06 41.62540 -70.90549 22575 ft 436 kts 214°
2026-05-05 00:06 41.59882 -70.92544 22889 ft 439 kts 214°
2026-05-05 00:06 41.57210 -70.94542 23224 ft 441 kts 214°
2026-05-05 00:06 41.54727 -70.96885 23503 ft 435 kts 229°
2026-05-05 00:07 41.52734 -70.99902 23777 ft 433 kts 236°
2026-05-05 00:07 41.51017 -71.03197 24054 ft 431 kts 241°
2026-05-05 00:07 41.49419 -71.06591 24313 ft 433 kts 242°
2026-05-05 00:07 41.47817 -71.10005 24572 ft 435 kts 242°
2026-05-05 00:08 41.46161 -71.13405 24818 ft 437 kts 240°
2026-05-05 00:08 41.44455 -71.16788 24902 ft 443 kts 240°
2026-05-05 00:08 41.42732 -71.20206 25157 ft 444 kts 240°
2026-05-05 00:08 41.41013 -71.23624 25470 ft 443 kts 240°
2026-05-05 00:09 41.39298 -71.27036 25786 ft 443 kts 241°
2026-05-05 00:09 41.37606 -71.30395 26088 ft 442 kts 240°
2026-05-05 00:09 41.35896 -71.33797 26399 ft 442 kts 240°
2026-05-05 00:09 41.34177 -71.37186 26692 ft 441 kts 240°
2026-05-05 00:10 41.32463 -71.40574 26983 ft 441 kts 241°
2026-05-05 00:10 41.30749 -71.43963 27288 ft 440 kts 241°
2026-05-05 00:10 41.29040 -71.47342 27571 ft 440 kts 241°
2026-05-05 00:10 41.27331 -71.50711 27859 ft 439 kts 241°
2026-05-05 00:11 41.25620 -71.54083 28151 ft 439 kts 241°
2026-05-05 00:11 41.23913 -71.57444 28427 ft 438 kts 241°
2026-05-05 00:11 41.22209 -71.60798 28696 ft 438 kts 241°
2026-05-05 00:11 41.20525 -71.64104 28948 ft 438 kts 241°
2026-05-05 00:12 41.18823 -71.67450 29208 ft 437 kts 241°
2026-05-05 00:12 41.17122 -71.70791 29458 ft 437 kts 241°
2026-05-05 00:12 41.15418 -71.74130 29712 ft 436 kts 241°
2026-05-05 00:12 41.13703 -71.77466 29901 ft 437 kts 241°
2026-05-05 00:13 41.11986 -71.80785 30128 ft 436 kts 241°
2026-05-05 00:13 41.10276 -71.84114 30307 ft 436 kts 241°
2026-05-05 00:13 41.08576 -71.87454 30479 ft 436 kts 242°
2026-05-05 00:13 41.06883 -71.90795 30646 ft 437 kts 242°
2026-05-05 00:14 41.05208 -71.94094 30802 ft 437 kts 241°
2026-05-05 00:14 41.03535 -71.97446 30966 ft 435 kts 244°
2026-05-05 00:14 41.02095 -72.00948 31132 ft 432 kts 249°
2026-05-05 00:14 41.00855 -72.04554 31296 ft 430 kts 252°
2026-05-05 00:15 40.99672 -72.08184 31454 ft 430 kts 252°
2026-05-05 00:15 40.98464 -72.11804 31590 ft 431 kts 251°
2026-05-05 00:15 40.97194 -72.15402 31755 ft 431 kts 250°
2026-05-05 00:15 40.95919 -72.18999 31866 ft 433 kts 250°
2026-05-05 00:16 40.94644 -72.22617 31916 ft 435 kts 250°
2026-05-05 00:16 40.91716 -72.29719 31946 ft 449 kts 239°
2026-05-05 00:17 40.87799 -72.36206 31958 ft 459 kts 234°
2026-05-05 00:17 40.83268 -72.42213 31950 ft 463 kts 228°
2026-05-05 00:18 40.78537 -72.47979 31959 ft 464 kts 226°
2026-05-05 00:18 40.73521 -72.53384 31970 ft 466 kts 223°
2026-05-05 00:19 40.68461 -72.58749 31971 ft 465 kts 225°
2026-05-05 00:19 40.63610 -72.64375 31962 ft 464 kts 226°
2026-05-05 00:20 40.58815 -72.69995 31972 ft 465 kts 226°
2026-05-05 00:20 40.53944 -72.75586 31976 ft 465 kts 226°
2026-05-05 00:21 40.48865 -72.81398 31967 ft 465 kts 225°
2026-05-05 00:21 40.43976 -72.86979 31969 ft 465 kts 225°
2026-05-05 00:22 40.39084 -72.92556 31975 ft 466 kts 225°
2026-05-05 00:22 40.34187 -72.98127 31967 ft 466 kts 225°
2026-05-05 00:23 40.29318 -73.03665 31952 ft 466 kts 225°
2026-05-05 00:23 40.24417 -73.09223 31970 ft 466 kts 225°
2026-05-05 00:24 40.19488 -73.14766 31971 ft 466 kts 225°
2026-05-05 00:24 40.14582 -73.20312 31978 ft 466 kts 225°
2026-05-05 00:25 40.09676 -73.25863 31974 ft 466 kts 225°
2026-05-05 00:25 40.04774 -73.31325 31974 ft 466 kts 224°
2026-05-05 00:26 39.99857 -73.36840 31984 ft 466 kts 224°
2026-05-05 00:26 39.94942 -73.42335 31987 ft 466 kts 224°
2026-05-05 00:27 39.90024 -73.47830 31982 ft 465 kts 224°
2026-05-05 00:27 39.85101 -73.53312 31985 ft 465 kts 224°
2026-05-05 00:28 39.80178 -73.58786 31996 ft 465 kts 224°
2026-05-05 00:28 39.75257 -73.64255 31996 ft 465 kts 224°
2026-05-05 00:29 39.70339 -73.69708 31989 ft 465 kts 224°
2026-05-05 00:29 39.65421 -73.75156 31992 ft 465 kts 224°
2026-05-05 00:30 39.60502 -73.80597 31988 ft 464 kts 223°
2026-05-05 00:30 39.55584 -73.86026 31989 ft 464 kts 223°
2026-05-05 00:31 39.50657 -73.91451 31992 ft 464 kts 224°
2026-05-05 00:31 39.45735 -73.96863 31987 ft 464 kts 224°
2026-05-05 00:32 39.40814 -74.02273 31985 ft 464 kts 223°
2026-05-05 00:32 39.35871 -74.07654 31971 ft 464 kts 223°
2026-05-05 00:33 39.30977 -74.13004 31980 ft 464 kts 223°
2026-05-05 00:33 39.26043 -74.18379 31984 ft 464 kts 223°
2026-05-05 00:34 39.21909 -74.22876 31976 ft 464 kts 223°
2026-05-05 00:34 39.16175 -74.29100 31974 ft 463 kts 223°
2026-05-05 00:35 39.12073 -74.33536 31988 ft 462 kts 223°
2026-05-05 00:35 39.07160 -74.38857 31983 ft 460 kts 223°
2026-05-05 00:36 39.02264 -74.44144 31985 ft 458 kts 222°
2026-05-05 00:36 38.97391 -74.49402 31988 ft 456 kts 223°
2026-05-05 00:37 38.92557 -74.54659 31983 ft 454 kts 224°
2026-05-05 00:37 38.87884 -74.60084 31984 ft 452 kts 225°
2026-05-05 00:38 38.83261 -74.65526 31975 ft 451 kts 225°
2026-05-05 00:38 38.78647 -74.70957 31962 ft 449 kts 225°
2026-05-05 00:39 38.73985 -74.76276 31981 ft 448 kts 223°
2026-05-05 00:39 38.69165 -74.81343 31977 ft 448 kts 221°
2026-05-05 00:40 38.64340 -74.86367 31981 ft 447 kts 221°
2026-05-05 00:40 38.59523 -74.91375 31976 ft 446 kts 222°
2026-05-05 00:41 38.54721 -74.96367 31985 ft 444 kts 222°
2026-05-05 00:41 38.49955 -75.01402 31988 ft 443 kts 223°
2026-05-05 00:42 38.45309 -75.06473 32004 ft 443 kts 221°
2026-05-05 00:42 38.40471 -75.11091 31806 ft 418 kts 219°
2026-05-05 00:42 38.38104 -75.13267 30911 ft 418 kts 219°
2026-05-05 00:43 38.35723 -75.15481 29290 ft 432 kts 220°
2026-05-05 00:43 38.33316 -75.17757 28418 ft 428 kts 219°
2026-05-05 00:43 38.30944 -75.20006 27596 ft 422 kts 219°
2026-05-05 00:43 38.28599 -75.22225 26803 ft 418 kts 219°
2026-05-05 00:44 38.26276 -75.24425 26035 ft 413 kts 220°
2026-05-05 00:44 38.23980 -75.26597 25295 ft 409 kts 219°
2026-05-05 00:44 38.21711 -75.28740 24585 ft 404 kts 219°
2026-05-05 00:44 38.19463 -75.30866 23893 ft 400 kts 219°
2026-05-05 00:45 38.17242 -75.32957 23206 ft 394 kts 220°
2026-05-05 00:45 38.15049 -75.35032 22421 ft 391 kts 219°
2026-05-05 00:45 38.13905 -75.36109 22034 ft 389 kts 220°
2026-05-05 00:45 38.11739 -75.38148 21317 ft 384 kts 220°
2026-05-05 00:46 38.09599 -75.40172 20618 ft 381 kts 219°
2026-05-05 00:46 38.07515 -75.42134 19914 ft 379 kts 220°
2026-05-05 00:46 38.05416 -75.44129 19286 ft 375 kts 219°
2026-05-05 00:46 38.03305 -75.46067 18664 ft 372 kts 217°
2026-05-05 00:47 38.01182 -75.47927 18027 ft 369 kts 217°
2026-05-05 00:47 37.99072 -75.49764 17370 ft 366 kts 217°
2026-05-05 00:47 37.96983 -75.51575 16740 ft 361 kts 218°
2026-05-05 00:47 37.94910 -75.53356 16124 ft 358 kts 217°
2026-05-05 00:48 37.92855 -75.55111 15462 ft 356 kts 217°
2026-05-05 00:48 37.90805 -75.56857 14880 ft 353 kts 218°
2026-05-05 00:48 37.88791 -75.58603 14293 ft 350 kts 218°
2026-05-05 00:48 37.86788 -75.60337 13689 ft 348 kts 218°
2026-05-05 00:49 37.84797 -75.62055 13058 ft 345 kts 218°
2026-05-05 00:49 37.82804 -75.63729 12431 ft 343 kts 217°
2026-05-05 00:49 37.80787 -75.65315 11826 ft 340 kts 215°
2026-05-05 00:49 37.78753 -75.66840 11205 ft 338 kts 214°
2026-05-05 00:50 37.76753 -75.68336 10925 ft 326 kts 216°
2026-05-05 00:50 37.74834 -75.69738 10816 ft 311 kts 216°
2026-05-05 00:50 37.73033 -75.71071 10693 ft 298 kts 216°
2026-05-05 00:50 37.71275 -75.72373 10515 ft 289 kts 217°
2026-05-05 00:51 37.69556 -75.73685 10112 ft 288 kts 217°
2026-05-05 00:51 37.67847 -75.75012 9740 ft 287 kts 217°
2026-05-05 00:51 37.66143 -75.76303 9412 ft 283 kts 217°
2026-05-05 00:51 37.64465 -75.77567 9037 ft 281 kts 218°
2026-05-05 00:52 37.62806 -75.78835 8705 ft 277 kts 215°
2026-05-05 00:52 37.61168 -75.80075 8362 ft 273 kts 215°
2026-05-05 00:52 37.59550 -75.81293 8071 ft 268 kts 214°
2026-05-05 00:52 37.57961 -75.82480 7821 ft 262 kts 214°
2026-05-05 00:53 37.56410 -75.83641 7566 ft 256 kts 214°
2026-05-05 00:53 37.54910 -75.84768 7308 ft 251 kts 215°
2026-05-05 00:53 37.53421 -75.85876 7057 ft 246 kts 214°
2026-05-05 00:53 37.51962 -75.86960 6810 ft 241 kts 214°
2026-05-05 00:54 37.50521 -75.88033 6567 ft 241 kts 214°
2026-05-05 00:54 37.49066 -75.89115 6332 ft 244 kts 214°
2026-05-05 00:54 37.47602 -75.90211 6074 ft 246 kts 214°
2026-05-05 00:54 37.46129 -75.91312 5822 ft 247 kts 214°
2026-05-05 00:55 37.44646 -75.92417 5578 ft 248 kts 214°
2026-05-05 00:55 37.43161 -75.93517 5329 ft 248 kts 214°
2026-05-05 00:55 37.41678 -75.94619 5084 ft 248 kts 214°
2026-05-05 00:55 37.40193 -75.95724 4848 ft 248 kts 213°
2026-05-05 00:56 37.38733 -75.96810 4614 ft 246 kts 214°
2026-05-05 00:56 37.37264 -75.97905 4361 ft 245 kts 213°
2026-05-05 00:56 37.35798 -75.98993 4115 ft 244 kts 213°
2026-05-05 00:56 37.34355 -76.00096 3863 ft 242 kts 218°
2026-05-05 00:57 37.32925 -76.01182 3599 ft 244 kts 200°
2026-05-05 00:57 37.31240 -76.01455 3450 ft 242 kts 190°
2026-05-05 00:57 37.29589 -76.01627 3352 ft 236 kts 189°
2026-05-05 00:57 37.27962 -76.01780 3247 ft 233 kts 189°
2026-05-05 00:58 37.26348 -76.01910 3167 ft 231 kts 188°
2026-05-05 00:58 37.24750 -76.02034 3076 ft 229 kts 188°
2026-05-05 00:58 37.23171 -76.02202 2963 ft 227 kts 191°
2026-05-05 00:58 37.21611 -76.02443 2882 ft 224 kts 192°
2026-05-05 00:59 37.20070 -76.02701 2789 ft 223 kts 192°
2026-05-05 00:59 37.18538 -76.02937 2709 ft 221 kts 192°
2026-05-05 00:59 37.17019 -76.03182 2606 ft 219 kts 191°
2026-05-05 00:59 37.15509 -76.03418 2502 ft 218 kts 191°
2026-05-05 01:00 37.14028 -76.03648 2401 ft 216 kts 191°
2026-05-05 01:00 37.12539 -76.03883 2272 ft 214 kts 191°
2026-05-05 01:00 37.11074 -76.04125 2187 ft 211 kts 191°
2026-05-05 01:00 37.09627 -76.04368 2087 ft 208 kts 190°
2026-05-05 01:01 37.08217 -76.04572 2077 ft 200 kts 189°
2026-05-05 01:01 37.06864 -76.04769 2092 ft 192 kts 189°
2026-05-05 01:01 37.05561 -76.04961 2102 ft 185 kts 189°
2026-05-05 01:01 37.04396 -76.05479 2101 ft 175 kts 219°
2026-05-05 01:02 37.03528 -76.06400 2197 ft 157 kts 215°
2026-05-05 01:02 37.02670 -76.07171 2147 ft 146 kts 215°
2026-05-05 01:02 37.01857 -76.07926 1921 ft 154 kts 215°
2026-05-05 01:02 37.00951 -76.08780 1805 ft 167 kts 215°
2026-05-05 01:03 37.00026 -76.09658 1731 ft 166 kts 215°
2026-05-05 01:03 36.99113 -76.10528 1683 ft 163 kts 215°
2026-05-05 01:03 36.98216 -76.11386 1667 ft 163 kts 216°
2026-05-05 01:03 36.97331 -76.12244 1638 ft 162 kts 214°
2026-05-05 01:04 36.96476 -76.13095 1582 ft 152 kts 216°
2026-05-05 01:04 36.94893 -76.14684 1108 ft 129 kts 214°
2026-05-05 01:04 36.94217 -76.15324 891 ft 118 kts 218°
2026-05-05 01:05 36.93552 -76.16057 643 ft 138 kts 217°
2026-05-05 01:05 36.92762 -76.16818 581 ft 143 kts 212°
2026-05-05 01:05 36.91989 -76.17535 495 ft 137 kts 216°
2026-05-05 01:05 36.91236 -76.18287 286 ft 137 kts 216°
2026-05-05 01:06 36.90492 -76.18998 51 ft 133 kts 215°
2026-05-05 01:06 36.89824 -76.19634 33 ft 96 kts 217°
2026-05-05 01:06 36.89518 -76.19942 37 ft 40 kts 217°
2026-05-05 01:06 36.89434 -76.20090 39 ft 17 kts 272°
2026-05-05 01:07 36.89484 -76.20170 38 ft 8 kts 352°
2026-05-05 01:07 36.89505 -76.20168 38 ft 2 kts 352°
2026-05-05 01:07 36.89558 -76.20192 38 ft 7 kts
2026-05-05 01:07 36.89586 -76.20183 37 ft 5 kts 14°
2026-05-05 01:08 36.89594 -76.20181 37 ft 0 kts 359°